Regional Weather Roundup
Issued by NWS Mt. Holly, NJ

Current Version | Previous Version | Text Only | Print | Product List | Glossary Off
Versions: 1 2 3 4 5 6 7 8 9 10 11 12 13 14 15 16 17 18 19 20 21 22 23 24 25 26 27 28

000
ASUS41 KPHI 230512
RWRPHI

REGIONAL WEATHER ROUNDUP
NATIONAL WEATHER SERVICE MOUNT HOLLY NJ
100 AM EDT SUN APR 23 2017

NOTE:  "FAIR" INDICATES FEW OR NO CLOUDS BELOW 12,000 FEET WITH NO
SIGNIFICANT WEATHER AND/OR OBSTRUCTIONS TO VISIBILITY.

 * = STATION DOES NOT REPORT PRECIPITATION (E.G. RAIN, SNOW, ETC.)
        OR FOG.

NJZ015>026-230600-
SOUTHERN NEW JERSEY

CITY           SKY/WX    TMP DP  RH WIND       PRES   REMARKS
POMONA         PTCLDY    48  44  86 N7        30.02R
WILDWOOD*      CLOUDY    52  50  93 N3        30.02S
MILLVILLE      CLOUDY    49  46  90 N8        30.02S
WRIGHTSTOWN    PTCLDY    45  40  81 NW7       30.01R
MOUNT HOLLY    PTCLDY    46  39  76 N5        30.03R
TRENTON        CLOUDY    47  37  68 N6        30.03S

$$
NJZ001>014-230600-
NORTHERN NEW JERSEY

CITY           SKY/WX    TMP DP  RH WIND       PRES   REMARKS
SUSSEX         PTCLDY    43  35  73 CALM      30.05R
ANDOVER*         N/A     44  35  70 CALM      30.05R
MORRISTOWN     CLEAR     46  37  71 N5        30.04R
NEWARK         MOCLDY    50  37  61 N12       30.03R
TETERBORO      MOCLDY    49  38  65 N7        30.03R
CALDWELL       CLOUDY    48  36  63 CALM      30.05R
SOMERVILLE     PTCLDY    47  37  68 NW5       30.03R
ALLAIRE*       CLOUDY    47  43  86 NW6       30.03R
TOMS RIVER*    PTCLDY    46  43  89 NW5       30.03R

$$
PAZ043-044-047-054-055-060>062-066>071-230600-
EASTERN PENNSYLVANIA

CITY           SKY/WX    TMP DP  RH WIND       PRES   REMARKS
PHILADELPHIA   MOCLDY    48  39  71 N7        30.04S
NORTH PHILA    CLOUDY    48  38  68 N8        30.05R
BLUE BELL*     PTCLDY    45  36  70 CALM      30.06S
DOYLESTOWN     PTCLDY    45  37  73 N5        30.04R
QUAKERTOWN*    CLEAR     45  36  70 N7        30.06R
PERKASIE*      FAIR      45  36  70 N5        30.06R
POTTSTOWN      CLEAR     45  35  68 N8        30.07R
LANCASTER      MOCLDY    45  40  82 NE5       30.06S
COATESVILLE    PTCLDY    45  37  76 N7        30.06S
READING        PTCLDY    47  36  65 N5        30.06R
ALLENTOWN      PTCLDY    43  34  70 N6        30.06R
MOUNT POCONO   CLOUDY    38  33  82 N10G20    30.02F WCI  31
HAZLETON       CLOUDY    39  32  75 N8        30.08R WCI  34
LEHIGHTON      FAIR      45  32  61 NE3       30.08R
WILKES BARRE   CLOUDY    41  34  76 CALM      30.07R

$$
DEZALL-MDZ008-012-015-019-020-230600-
DELAWARE AND EASTERN MARYLAND

CITY           SKY/WX    TMP DP  RH WIND       PRES   REMARKS
WILMINGTON     PTCLDY    49  42  77 N9        30.05R
DOVER          PTCLDY    50  49  99 N12       30.02S
GEORGETOWN     CLOUDY    53  51  93 MISG      30.02S
EASTON         CLOUDY    51  49  92 CALM      30.07R
ABERDEEN       MOCLDY    49  44  81 NE8       30.05S
PATUXENT       CLOUDY    54  52  93 NE10      30.02F
OCEAN CITY     CLOUDY    52  49  89 NE6       30.02R
WALLOPS ISLAND CLOUDY    52  51  97 N6        30.02R
CAMBRIDGE      CLOUDY    54  50  87 N5        30.03R
SALISBURY      CLOUDY    52  52 100 N6        30.01F

$$
PAZ001-021-NYZ056-072-MDZ011-DCZ001-230600-
OTHER NEARBY LOCATIONS

CITY           SKY/WX    TMP DP  RH WIND       PRES   REMARKS
HARRISBURG     MOCLDY    49  37  63 N3        30.07R
STATE COLLEGE  CLEAR     42  35  74 N5        30.08R
WILLIAMSPORT   CLEAR     41  35  79 N3        30.08R
BINGHAMTON     CLEAR     37  32  82 N7        30.06S WCI  32
NEW YORK CITY  MOCLDY    50  39  66 VRB5      30.05R
BALTIMORE      CLOUDY    49  48  97 NW6       30.05R
WASHINGTON DC  CLOUDY    52  49  89 NW7       30.06R

$$




USA.gov is the U.S. government's official web portal to all federal, state and local government web resources and services.